User: anonymous   Login
Location: Newark
(49.1000°N, 0.4667°W)
Time: 12:16:44
(UTC+00:00)
Language:

LilacSat-2 - Orbit

View from above orbital plane
View from above orbital plane
View from above satellite
View from above satellite

Ground track
Ground track

The orbit data is extracted from the following two-line orbital elements,

1 40908U 15049K   21296.05785063  .00001181  00000-0  67278-4 0  9999
2 40908  97.5096 294.3690 0017197 115.9076 315.7281 15.14642105336543
Epoch (UTC): 23 October 2021 01:23:18
Eccentricity: 0.0017197
inclination: 97.5096°
perigee height: 510 km
apogee height: 534 km
right ascension of ascending node: 294.3690°
argument of perigee: 115.9076°
revolutions per day: 15.14642105
mean anomaly at epoch: 315.7281°
orbit number at epoch: 33654

The dashed part of the orbit path shows where the satellite is in the earth's shadow,  

DLR